{"data":{"norad_id":44777,"intl_designator":"2019-075A","name":"JILIN-1 GAOFEN 2A","alt_names":[],"object_type":"PAYLOAD","status":"ACTIVE","operator":null,"country":"PRC","launch_date":"2019-11-13","launch_site_code":"JSC","launch_vehicle":null,"mission":null,"orbit_class":"UNKNOWN","rcs_meters":null,"size_class":null,"mass_kg":null,"dimensions":null,"purposes":[],"wikipedia_slug":null,"has_3d_model":false,"image_url":null,"decayed_at":null,"tle_current":{"epoch":"2026-05-25T04:23:29.033952Z","epoch_age_seconds":53159,"freshness":"FRESH","line1":"1 44777U 19075A   26145.18297493  .00014952  00000+0  39389-3 0  9997","line2":"2 44777  97.4963 228.4476 0007308 155.1633 204.9965 15.38599751361349","mean_motion":15.38599751,"eccentricity":0.0007308,"inclination_deg":97.4963,"raan_deg":228.4476,"arg_perigee_deg":155.1633,"mean_anomaly_deg":204.9965,"bstar":0.00039389,"rev_number":36134,"period_min":93.591591904528,"perigee_km":445.25891279257,"apogee_km":455.23928191246,"semimajor_km":6828.3860973525,"source":"CELESTRAK","updated_at":"2026-05-25T13:37:56.010213Z"}}}